Location: Six Mile Lake
(44.9000°N, 79.7170°W)
Time: 20:18:02
(UTC-04:00)

DOVE 4 - Visible Passes

Search period start: 27 June 2022 00:00
Search period end: 07 July 2022 00:00
Orbit: 586 x 798 km, 97.8° (Epoch: 24 June)

Date Brightness Start Highest point End Pass type
(mag) Time Alt. Az. Time Alt. Az. Time Alt. Az.
27 Jun ? 00:58:10 10° NNE 01:03:04 81° ESE 01:04:20 51° S visible
27 Jun ? 02:37:26 10° NNW 02:40:04 15° WNW 02:42:45 10° W visible
28 Jun ? 00:00:57 10° NE 00:04:58 24° E 00:05:48 23° ESE visible
28 Jun ? 01:38:01 10° N 01:42:40 44° WNW 01:44:29 31° WSW visible
29 Jun ? 00:39:58 10° NNE 00:44:50 56° E 00:45:56 46° SE visible
29 Jun ? 02:18:26 10° NNW 02:22:02 21° WNW 02:24:37 14° W visible
29 Jun ? 23:43:20 10° NE 23:46:35 17° E 23:47:24 16° ESE visible
30 Jun ? 01:19:36 10° N 01:24:30 65° WNW 01:26:04 42° SW visible
01 Jul ? 00:21:52 10° NNE 00:26:33 38° E 00:27:31 35° ESE visible
01 Jul ? 01:59:43 10° N 02:03:58 29° WNW 02:06:12 21° WSW visible
01 Jul ? 23:26:24 10° ENE 23:28:08 12° E 23:28:58 11° E visible
02 Jul ? 01:01:16 10° NNE 01:06:18 88° ESE 01:07:39 51° SSW visible
02 Jul ? 02:40:40 10° NNW 02:43:13 14° WNW 02:45:49 10° W visible
03 Jul ? 00:03:54 10° NE 00:08:12 27° E 00:09:05 26° ESE visible
03 Jul ? 01:41:09 10° N 01:45:51 41° WNW 01:47:46 30° WSW visible
04 Jul ? 00:43:01 10° NNE 00:48:03 62° E 00:49:12 49° SSE visible
04 Jul ? 02:21:36 10° NNW 02:25:11 20° WNW 02:27:52 14° W visible
04 Jul ? 23:46:11 10° NE 23:49:48 19° E 23:50:38 18° ESE visible
05 Jul ? 01:22:41 10° N 01:27:41 60° WNW 01:29:18 41° SW visible
06 Jul ? 00:24:52 10° NNE 00:29:45 42° E 00:30:44 38° SE visible
06 Jul ? 02:02:49 10° N 02:07:06 28° WNW 02:09:24 20° WSW visible
06 Jul ? 23:28:56 10° ENE 23:31:20 13° E 23:32:09 13° E visible
